TimeCST,TemperatureF,Dew PointF,Humidity,Sea Level PressureIn,VisibilityMPH,Wind Direction,Wind SpeedMPH,Gust SpeedMPH,PrecipitationIn,Events,Conditions,WindDirDegrees,DateUTC
12:15 AM,30.2,24.8,80,29.82,7.0,South,15.0,-,N/A,,Clear,170,2014-03-07 06:15:00
12:35 AM,30.2,24.8,80,29.81,7.0,South,12.7,-,N/A,,Clear,170,2014-03-07 06:35:00
12:55 AM,30.2,24.8,80,29.80,7.0,South,13.8,-,N/A,,Clear,170,2014-03-07 06:55:00
1:15 AM,30.2,26.6,86,29.79,7.0,SSE,12.7,-,N/A,,Clear,160,2014-03-07 07:15:00
1:35 AM,30.2,26.6,86,29.80,7.0,SSE,12.7,-,N/A,,Clear,160,2014-03-07 07:35:00
1:55 AM,28.4,24.8,86,29.79,5.0,SSE,12.7,-,N/A,,Clear,160,2014-03-07 07:55:00
2:15 AM,30.2,24.8,80,29.79,5.0,SSE,12.7,-,N/A,,Haze,160,2014-03-07 08:15:00
2:35 AM,28.4,24.8,86,29.77,5.0,SSE,12.7,-,N/A,,Clear,160,2014-03-07 08:35:00
2:55 AM,30.2,26.6,86,29.77,5.0,SSE,11.5,-,N/A,,Clear,160,2014-03-07 08:55:00
3:15 AM,30.2,26.6,86,29.76,7.0,SSE,11.5,-,N/A,,Clear,160,2014-03-07 09:15:00
3:30 AM,32.0,26.6,80,29.76,7.0,South,11.5,-,N/A,,Clear,170,2014-03-07 09:30:00
3:55 AM,32.0,26.6,80,29.76,7.0,South,11.5,-,N/A,,Scattered Clouds,170,2014-03-07 09:55:00
4:15 AM,30.2,26.6,86,29.77,5.0,South,5.8,-,N/A,,Scattered Clouds,170,2014-03-07 10:15:00
4:35 AM,30.2,26.6,86,29.76,5.0,SSE,6.9,-,N/A,,Scattered Clouds,160,2014-03-07 10:35:00
4:55 AM,30.2,26.6,86,29.76,5.0,South,5.8,-,N/A,,Mostly Cloudy,180,2014-03-07 10:55:00
5:15 AM,30.2,26.6,86,29.76,5.0,South,6.9,-,N/A,,Scattered Clouds,180,2014-03-07 11:15:00
5:35 AM,30.2,26.6,86,29.76,5.0,SSE,6.9,-,N/A,,Clear,160,2014-03-07 11:35:00
5:55 AM,28.4,26.6,93,29.76,5.0,South,5.8,-,N/A,,Clear,180,2014-03-07 11:55:00
6:15 AM,28.4,26.6,93,29.77,5.0,South,4.6,-,N/A,,Clear,190,2014-03-07 12:15:00
6:35 AM,28.4,24.8,86,29.77,4.0,South,3.5,-,N/A,,Scattered Clouds,180,2014-03-07 12:35:00
6:55 AM,26.6,24.8,93,29.78,2.5,Calm,Calm,-,N/A,,Scattered Clouds,0,2014-03-07 12:55:00
7:15 AM,26.6,24.8,93,29.78,2.0,Calm,Calm,-,N/A,,Overcast,0,2014-03-07 13:15:00
7:35 AM,26.6,24.8,93,29.78,2.5,Calm,Calm,-,N/A,,Overcast,0,2014-03-07 13:35:00
7:55 AM,28.4,26.6,93,29.78,2.5,Calm,Calm,-,N/A,,Overcast,0,2014-03-07 13:55:00
8:10 AM,28.4,26.6,93,29.79,3.0,Calm,Calm,-,N/A,,Overcast,0,2014-03-07 14:10:00
8:35 AM,30.2,28.4,93,29.80,3.0,Calm,Calm,-,N/A,,Mostly Cloudy,0,2014-03-07 14:35:00
8:55 AM,32.0,28.4,87,29.81,3.0,West,5.8,-,N/A,,Scattered Clouds,270,2014-03-07 14:55:00
9:15 AM,32.0,30.2,93,29.81,3.0,WNW,6.9,-,N/A,,Mostly Cloudy,300,2014-03-07 15:15:00
9:35 AM,33.8,30.2,87,29.81,4.0,WNW,10.4,-,N/A,,Overcast,290,2014-03-07 15:35:00
9:55 AM,33.8,30.2,87,29.81,4.0,NW,15.0,18.4,N/A,,Overcast,320,2014-03-07 15:55:00
10:15 AM,33.8,30.2,87,29.81,3.0,NNW,18.4,-,N/A,,Overcast,340,2014-03-07 16:15:00
10:35 AM,33.8,30.2,87,29.85,3.0,NNW,18.4,28.8,N/A,,Overcast,330,2014-03-07 16:35:00
10:55 AM,33.8,30.2,87,29.84,3.0,North,16.1,-,N/A,,Overcast,350,2014-03-07 16:55:00
11:15 AM,33.8,30.2,87,29.85,3.0,NNW,17.3,-,N/A,,Overcast,340,2014-03-07 17:15:00
11:35 AM,33.8,30.2,87,29.86,4.0,NNW,19.6,25.3,N/A,,Haze,340,2014-03-07 17:35:00
11:55 AM,33.8,30.2,87,29.87,3.0,NW,12.7,-,N/A,,Overcast,320,2014-03-07 17:55:00
12:15 PM,32.0,28.4,87,29.87,2.5,NNW,17.3,-,N/A,,Overcast,330,2014-03-07 18:15:00
12:35 PM,32.0,28.4,87,29.88,1.8,NW,16.1,21.9,N/A,,Overcast,320,2014-03-07 18:35:00
12:55 PM,32.0,28.4,87,29.88,2.5,NNW,19.6,26.5,N/A,,Overcast,330,2014-03-07 18:55:00
1:15 PM,32.0,26.6,80,29.89,5.0,NNW,16.1,24.2,N/A,,Haze,330,2014-03-07 19:15:00
1:35 PM,32.0,26.6,80,29.88,5.0,NNW,17.3,26.5,N/A,,Haze,330,2014-03-07 19:35:00
1:55 PM,32.0,26.6,80,29.89,5.0,NW,17.3,26.5,N/A,,Haze,320,2014-03-07 19:55:00
2:15 PM,30.2,24.8,80,29.89,7.0,NNW,21.9,27.6,N/A,,Overcast,330,2014-03-07 20:15:00
2:35 PM,30.2,23.0,75,29.91,7.0,NW,17.3,26.5,N/A,,Overcast,320,2014-03-07 20:35:00
2:55 PM,30.2,23.0,75,29.93,7.0,NNW,19.6,26.5,N/A,,Overcast,330,2014-03-07 20:55:00
3:15 PM,28.4,23.0,80,29.94,7.0,NW,17.3,25.3,N/A,,Overcast,320,2014-03-07 21:15:00
3:35 PM,28.4,23.0,80,29.95,7.0,NW,16.1,21.9,N/A,,Overcast,320,2014-03-07 21:35:00
3:55 PM,28.4,21.2,74,29.97,7.0,NNW,17.3,24.2,N/A,,Overcast,330,2014-03-07 21:55:00
4:15 PM,26.6,21.2,80,29.98,7.0,NNW,17.3,-,N/A,,Overcast,330,2014-03-07 22:15:00
4:30 PM,26.6,21.2,80,29.99,7.0,NNW,13.8,21.9,N/A,,Overcast,330,2014-03-07 22:30:00
4:55 PM,26.6,21.2,80,29.99,10.0,NW,12.7,-,N/A,,Overcast,320,2014-03-07 22:55:00
5:15 PM,26.6,21.2,80,30.01,10.0,NNW,16.1,-,N/A,,Overcast,340,2014-03-07 23:15:00
5:35 PM,26.6,21.2,80,30.01,10.0,NNW,16.1,21.9,N/A,,Overcast,330,2014-03-07 23:35:00
5:55 PM,26.6,21.2,80,30.01,10.0,NNW,16.1,-,N/A,,Overcast,340,2014-03-07 23:55:00
6:15 PM,26.6,21.2,80,30.01,10.0,NNW,18.4,-,N/A,,Overcast,330,2014-03-08 00:15:00
6:35 PM,26.6,21.2,80,30.02,10.0,NNW,18.4,26.5,N/A,,Overcast,340,2014-03-08 00:35:00
6:55 PM,26.6,21.2,80,30.03,10.0,NNW,20.7,26.5,N/A,,Overcast,340,2014-03-08 00:55:00
7:15 PM,26.6,21.2,80,30.03,10.0,NNW,17.3,-,N/A,,Overcast,340,2014-03-08 01:15:00
7:35 PM,26.6,19.4,74,30.04,10.0,NNW,19.6,27.6,N/A,,Overcast,340,2014-03-08 01:35:00
7:55 PM,26.6,19.4,74,30.05,10.0,NNW,17.3,24.2,N/A,,Overcast,340,2014-03-08 01:55:00
8:15 PM,26.6,19.4,74,30.06,10.0,NNW,18.4,-,N/A,,Overcast,340,2014-03-08 02:15:00
8:35 PM,26.6,19.4,74,30.07,10.0,NNW,17.3,21.9,N/A,,Overcast,340,2014-03-08 02:35:00
8:55 PM,26.6,19.4,74,30.08,10.0,NNW,12.7,20.7,N/A,,Overcast,330,2014-03-08 02:55:00
9:15 PM,26.6,19.4,74,30.09,10.0,NNW,11.5,19.6,N/A,,Overcast,330,2014-03-08 03:15:00
9:35 PM,26.6,19.4,74,30.10,10.0,NNW,13.8,-,N/A,,Overcast,330,2014-03-08 03:35:00
9:55 PM,26.6,19.4,74,30.11,10.0,NNW,11.5,-,N/A,,Overcast,330,2014-03-08 03:55:00
10:15 PM,24.8,19.4,80,30.11,10.0,NNW,15.0,18.4,N/A,,Overcast,330,2014-03-08 04:15:00
10:35 PM,24.8,19.4,80,30.11,10.0,NNW,12.7,-,N/A,,Overcast,330,2014-03-08 04:35:00
10:55 PM,24.8,19.4,80,30.11,10.0,NNW,12.7,-,N/A,,Overcast,330,2014-03-08 04:55:00
11:15 PM,24.8,19.4,80,30.11,10.0,NNW,11.5,-,N/A,,Overcast,330,2014-03-08 05:15:00
11:35 PM,24.8,19.4,80,30.12,10.0,NNW,11.5,-,N/A,,Overcast,330,2014-03-08 05:35:00
11:55 PM,24.8,19.4,80,30.13,10.0,NNW,12.7,-,N/A,,Overcast,340,2014-03-08 05:55:00